ECMWFFLT2_850_thetae_162.txt.gz
Theta_e
324 324 323 321 320 319 318 319 320 320 321 322 322 321 322 321 319 316 314 312 310 310 311 312 315 319 320 319 320 320 319 319 318 320 322 322 320 320 319 318 318 318 318 318 318 317 317 316 318 324 328 328 329 330 326 321 327 330 330 332 332 333
324 326 324 322 321 320 319 320 320 321 321 323 324 323 323 322 320 316 314 312 311 310 311 312 313 317 319 319 319 320 319 319 319 320 322 322 320 319 319 318 317 317 317 316 316 319 321 319 323 330 329 328 329 330 330 329 331 332 332 332 332 333
324 327 326 324 322 320 321 320 321 321 321 323 325 324 323 323 320 317 314 313 311 310 311 311 312 315 318 319 318 319 319 319 319 321 321 321 320 319 319 317 317 316 316 317 321 325 328 326 327 329 327 328 329 330 331 332 332 333 333 333 333 333
325 327 327 325 323 323 323 322 322 321 321 324 325 325 323 322 321 318 316 315 313 311 310 310 312 314 317 318 318 319 319 319 320 321 321 320 319 318 317 317 316 314 315 320 326 328 328 329 328 328 327 328 328 329 331 332 332 333 333 333 333 333
326 327 328 327 324 324 325 324 324 322 322 324 325 325 324 322 322 320 318 316 314 312 311 310 311 312 315 317 318 318 318 319 320 321 321 319 317 316 316 315 314 314 317 323 328 329 329 329 329 329 329 329 329 330 331 332 332 332 333 333 333 334
328 328 328 329 325 326 327 325 325 323 322 325 326 325 324 323 322 322 319 317 315 314 313 311 310 311 313 316 317 318 318 319 319 320 320 319 317 315 315 314 314 318 323 327 329 330 330 330 330 330 329 330 332 333 333 333 332 332 333 334 333 334
331 328 328 329 327 327 329 326 325 324 323 324 326 325 324 323 323 323 321 318 316 315 314 312 311 310 312 314 316 317 317 318 318 319 319 318 317 315 313 312 317 323 327 329 329 330 330 330 331 332 330 330 333 334 334 334 334 334 334 335 334 334
333 330 328 329 328 328 329 326 325 326 325 325 326 326 324 324 324 323 322 319 317 317 315 312 311 311 312 313 315 317 317 317 317 317 317 316 314 312 312 315 322 328 329 329 329 329 330 330 333 334 333 333 334 334 334 335 335 335 335 335 334 333
333 331 329 329 329 329 328 326 324 326 325 325 326 326 325 324 325 325 323 322 321 320 317 312 312 313 314 313 314 316 317 317 317 316 314 312 311 312 317 321 326 329 328 329 329 330 331 332 334 335 336 336 335 334 333 335 335 335 334 334 333 333
332 331 330 330 330 330 329 327 325 324 323 324 326 327 326 325 326 326 326 325 325 324 320 315 315 317 318 318 315 315 316 316 316 314 312 311 312 317 322 323 325 326 326 327 330 331 332 333 333 335 337 335 334 334 333 334 334 334 333 333 332 333
333 331 330 330 330 330 330 328 326 324 321 322 326 328 327 327 327 329 329 328 328 328 323 317 318 321 323 323 318 315 316 315 315 312 311 314 317 322 325 324 324 325 327 329 331 332 332 333 334 336 336 334 334 333 333 333 333 333 333 333 333 333
336 333 330 330 331 331 331 331 328 325 322 322 326 329 328 329 330 331 332 331 330 329 324 320 321 324 327 327 320 317 316 314 314 313 316 321 323 325 328 327 326 328 331 331 331 332 333 333 333 334 334 333 333 333 333 333 333 333 333 333 332 332
340 337 334 333 333 333 333 333 332 329 324 323 327 329 330 331 332 332 333 332 332 331 326 322 322 325 329 328 320 318 317 315 316 316 322 326 325 325 327 327 328 330 330 328 331 333 333 333 333 333 333 333 333 332 333 333 333 333 333 332 331 332
341 340 337 336 335 335 336 337 335 332 327 325 328 331 332 333 333 334 334 334 335 334 331 325 323 325 328 328 324 319 317 317 319 319 324 327 325 325 324 326 328 330 329 330 334 334 332 333 333 333 333 333 333 333 333 333 333 332 331 331 331 333
341 341 340 338 337 338 339 339 336 333 329 329 333 334 335 335 335 336 336 336 337 336 334 329 326 326 326 329 328 322 319 320 321 322 324 325 325 326 325 325 328 331 332 334 336 333 332 333 332 333 334 334 334 334 333 331 329 328 328 331 333 332
341 341 341 338 338 340 340 339 336 334 334 335 337 337 337 338 338 338 338 338 337 336 335 330 329 329 326 329 330 325 321 323 323 322 323 324 325 327 326 325 328 332 333 335 335 332 331 331 331 333 334 334 334 332 330 327 326 324 325 330 332 331
341 341 341 339 339 341 341 339 337 337 338 338 338 340 340 340 340 340 339 338 336 335 332 329 330 329 324 327 329 325 321 323 324 323 323 326 327 326 324 324 328 332 334 335 333 330 330 329 330 331 331 331 330 329 327 326 327 324 322 327 329 331
341 341 341 340 340 341 342 340 337 338 339 339 339 340 340 340 341 341 340 338 335 332 325 323 328 327 322 324 326 321 319 322 325 324 323 323 324 326 327 328 331 333 335 335 331 328 328 328 328 328 327 326 326 326 326 327 330 325 323 328 330 330
342 342 341 341 341 342 343 342 339 338 340 341 340 340 341 341 341 341 340 338 335 332 323 318 325 325 319 319 321 320 319 320 322 322 321 321 325 330 333 333 333 334 336 333 329 328 328 327 327 326 325 325 325 325 325 329 331 328 327 330 330 329
342 342 341 341 341 342 344 342 340 339 341 342 341 341 341 341 342 341 340 338 335 333 326 320 321 320 316 317 321 323 321 320 320 320 320 323 329 334 335 334 333 335 335 332 329 329 328 328 327 326 324 323 323 324 326 331 331 329 328 328 328 329
343 343 341 341 341 341 343 342 341 341 341 341 341 342 341 342 342 340 340 338 334 333 329 323 318 315 315 318 325 329 325 322 320 319 320 326 333 336 335 333 333 334 333 330 330 329 329 329 327 327 323 320 323 326 329 333 331 329 329 327 328 329
343 342 342 341 340 340 342 342 342 341 340 340 340 340 340 341 341 341 340 337 334 334 333 326 315 313 318 322 330 334 328 322 318 318 322 330 335 336 336 333 332 333 332 331 331 330 330 330 329 328 322 321 328 331 332 333 330 329 330 329 329 329
342 342 342 342 340 340 341 341 341 341 340 340 339 339 340 340 341 341 339 336 335 334 335 330 316 313 321 326 332 335 329 322 319 321 328 333 335 337 336 334 332 332 332 331 331 330 331 331 330 328 323 323 330 333 333 333 329 329 331 329 330 329
342 342 342 342 340 339 340 341 341 341 340 340 339 339 340 341 341 340 337 335 336 335 335 333 321 315 322 328 332 333 329 325 325 330 333 334 335 336 336 334 333 332 331 331 330 330 332 332 330 328 324 323 328 332 333 332 330 330 330 330 330 330
342 342 342 342 340 339 339 340 341 341 341 340 339 340 341 342 341 338 337 336 336 335 335 335 326 316 321 328 331 332 331 329 331 335 335 334 334 335 335 334 333 332 331 331 330 331 333 332 330 328 325 322 325 331 332 331 330 329 329 329 330 330
343 342 341 341 341 339 339 340 340 340 340 340 340 340 340 341 340 339 337 336 336 335 335 335 330 320 318 323 328 332 332 331 334 336 333 331 334 335 336 334 332 332 332 331 330 331 332 331 330 328 326 323 323 327 329 327 327 328 328 328 329 328
343 343 342 342 342 340 339 339 340 340 339 340 340 339 340 340 340 339 337 336 336 335 334 335 335 330 322 319 324 329 329 328 333 334 331 331 334 336 335 333 332 332 332 331 329 330 330 330 328 327 326 324 321 322 324 323 324 326 326 326 327 328
343 343 343 343 342 340 339 339 340 340 339 339 339 339 339 340 340 339 337 336 336 335 335 334 335 335 326 317 322 328 328 328 332 333 332 332 334 335 335 333 332 332 333 331 329 329 329 327 325 324 325 325 322 321 322 322 322 324 325 324 325 325
344 343 343 343 342 341 340 339 339 340 339 339 339 338 339 340 340 339 338 337 336 335 336 335 335 337 328 316 322 332 334 333 334 333 333 333 334 335 335 333 332 333 333 332 330 330 329 327 325 324 324 326 326 324 322 323 324 324 324 323 323 323
344 344 343 342 341 340 340 339 339 339 339 339 340 339 339 340 339 339 338 337 336 335 336 336 335 337 331 318 320 333 337 336 334 332 332 333 333 333 334 334 334 334 333 332 331 330 330 329 326 323 322 324 326 325 324 324 325 325 324 324 324 322
345 344 343 341 341 340 340 340 339 339 339 339 339 339 339 339 338 338 339 338 337 335 335 336 333 333 332 325 327 335 338 336 334 332 332 333 331 332 334 334 334 333 333 332 331 330 330 329 325 320 320 323 324 323 323 323 324 325 324 324 322 320
345 344 342 341 341 340 339 340 340 339 339 339 339 339 338 338 338 337 338 337 337 336 335 335 334 331 329 328 332 337 338 335 332 330 331 331 330 331 332 332 332 332 332 332 330 330 330 327 321 316 319 323 322 320 318 319 320 320 319 319 318 318
344 343 342 341 340 339 338 339 340 339 339 339 339 339 338 338 338 337 337 337 337 336 335 335 335 332 328 328 332 336 337 334 331 329 329 329 329 331 331 330 331 332 332 331 328 329 328 323 318 317 321 323 320 317 316 316 316 316 316 316 316 317
344 343 342 341 340 340 338 338 340 339 339 340 340 339 339 339 339 339 338 337 336 336 335 334 334 333 329 328 331 335 335 333 331 330 328 327 329 330 330 331 332 333 332 329 327 326 324 319 316 318 321 322 318 316 315 315 315 315 315 315 315 318
344 343 342 341 340 340 339 338 339 339 339 339 339 339 339 339 340 339 338 337 336 336 335 335 334 332 329 327 330 334 334 333 332 330 329 328 329 331 331 330 331 332 330 328 327 325 320 317 317 318 320 320 318 316 315 315 315 315 314 315 315 317
344 344 342 341 339 340 340 338 339 340 340 339 339 339 340 340 340 340 339 338 336 336 336 336 334 333 331 330 330 332 332 332 333 330 330 331 331 331 329 328 330 331 329 328 327 324 319 317 317 318 319 318 317 315 314 314 314 313 313 313 313 314
343 344 342 340 340 340 340 339 339 340 340 340 339 339 340 340 340 339 339 338 337 336 336 336 335 332 331 332 332 332 332 332 331 329 331 332 332 331 329 329 330 331 330 329 327 324 319 317 317 317 318 317 316 315 314 314 313 312 311 310 310 312

ECMWFFLT2_850_thetae_168.txt.gz
Theta_e
325 325 323 321 319 319 319 319 318 318 318 318 317 317 316 315 315 316 316 316 318 320 319 317 317 317 317 317 318 318 318 319 318 317 316 315 313 313 313 313 315 316 318 318 317 316 316 321 326 327 328 329 329 330 330 324 321 325 328 330 332 332
324 324 323 322 319 319 319 319 319 318 319 318 318 318 317 316 315 315 315 315 315 317 319 319 318 317 317 317 318 318 318 319 319 318 317 316 315 314 314 315 315 316 317 316 316 315 317 324 328 328 328 328 328 329 331 329 328 329 331 332 332 332
322 323 323 322 320 319 319 319 319 319 318 318 318 318 318 317 315 314 313 313 313 314 316 318 319 318 318 318 318 318 318 319 318 319 319 318 317 316 316 316 316 316 316 315 317 318 321 326 327 328 328 327 327 327 329 331 331 332 332 332 332 332
322 321 322 322 320 320 320 320 319 319 319 318 318 319 319 318 316 314 312 312 312 312 313 316 318 319 318 318 318 318 319 319 318 319 320 318 318 317 317 316 316 316 314 316 322 325 326 327 327 328 328 327 328 328 328 330 331 332 332 332 332 332
321 321 321 320 320 320 320 321 320 319 319 319 319 319 319 318 317 315 312 312 311 311 312 313 316 318 318 318 318 318 318 319 319 319 320 318 317 317 316 316 316 314 315 321 326 327 328 328 328 329 328 328 329 329 330 331 331 331 331 332 332 332
322 321 320 320 319 319 320 321 321 320 319 319 319 318 319 319 318 316 314 312 311 310 311 312 313 316 318 318 318 318 318 319 319 320 319 318 317 317 316 316 315 314 318 323 326 327 328 329 329 329 330 330 329 329 331 332 333 332 332 332 333 333
323 321 320 320 319 320 320 321 321 319 319 319 318 318 319 319 319 318 315 313 312 310 310 311 312 314 316 318 318 317 318 318 319 320 320 319 318 317 316 316 315 314 317 323 325 327 329 329 329 329 329 330 330 330 331 333 333 333 333 333 333 333
325 322 321 320 320 320 320 321 320 320 319 319 319 319 318 318 319 318 316 314 312 311 310 311 311 312 314 316 318 318 318 318 319 319 320 320 319 318 317 316 314 313 316 321 324 328 329 329 329 328 329 329 330 331 332 333 333 333 334 333 333 333
326 324 322 320 320 320 320 320 320 320 319 319 319 319 318 318 318 318 317 315 313 313 311 310 311 311 312 314 316 318 318 318 319 319 319 320 320 319 317 316 315 315 317 320 324 328 328 329 329 329 329 330 332 334 334 334 334 333 333 333 333 333
328 325 323 321 320 320 320 319 319 319 319 318 319 318 319 318 318 318 318 317 315 314 313 312 310 310 311 312 314 317 318 318 318 319 319 320 320 319 318 316 315 316 318 320 323 325 327 328 328 330 331 332 334 335 335 334 333 333 332 333 333 333
329 326 324 322 321 320 320 319 319 319 318 318 318 318 318 318 318 317 318 318 316 316 315 314 313 311 310 311 312 315 317 318 318 318 319 319 319 319 318 316 315 315 317 320 322 324 326 327 329 331 332 334 336 335 334 333 333 333 333 333 333 333
329 327 326 324 323 321 320 320 319 319 318 318 317 318 318 319 318 317 318 318 318 318 317 316 315 313 311 310 310 312 315 317 318 318 318 319 319 318 316 314 313 314 316 319 323 325 325 327 330 333 333 334 335 335 333 332 332 332 332 333 333 333
328 327 327 326 325 323 322 321 320 319 318 318 318 318 318 318 318 318 318 318 319 319 319 318 318 315 313 312 312 312 313 316 318 318 318 318 317 315 314 313 313 314 317 321 323 324 326 329 332 333 333 333 333 333 332 332 332 332 333 333 332 332
330 329 328 328 327 326 324 322 321 320 318 318 317 317 318 318 318 318 319 319 319 320 320 320 321 320 315 315 316 314 314 315 317 318 317 317 316 313 312 313 315 319 321 322 323 325 328 331 333 333 333 332 332 332 332 332 332 333 333 332 329 330
336 334 332 331 328 327 327 324 322 321 319 318 317 317 317 317 318 319 319 320 320 321 322 323 325 325 320 317 318 318 316 315 316 318 317 316 314 312 312 315 320 323 323 324 326 329 331 333 334 334 333 332 332 332 332 332 332 332 331 328 324 326
340 338 337 335 332 329 328 327 324 322 320 319 318 317 317 318 319 320 320 320 321 322 324 326 327 327 324 320 320 322 320 316 316 317 317 316 315 315 316 319 324 325 324 326 329 332 333 334 335 334 333 331 331 331 330 330 330 329 328 325 323 326
340 338 338 337 335 332 329 328 326 325 323 321 319 319 318 318 320 321 321 321 322 323 325 327 329 330 327 323 323 326 324 317 317 317 318 321 321 322 323 325 327 326 325 327 330 332 332 334 335 335 333 331 330 329 328 328 328 328 327 324 325 329
338 336 336 336 336 334 331 329 328 327 325 324 322 321 320 319 320 321 322 322 323 324 326 329 333 333 330 327 325 327 326 320 319 321 323 326 328 328 328 329 328 326 326 327 329 330 331 334 334 333 331 330 328 327 327 328 328 327 326 325 327 329
336 334 332 333 335 335 332 330 329 328 328 327 325 324 322 320 321 322 322 323 324 326 329 333 334 333 332 330 328 328 328 325 323 325 327 328 330 331 331 330 327 326 327 329 329 329 331 334 333 331 330 329 327 325 327 329 328 327 327 327 328 329
336 335 333 332 332 333 332 331 330 330 329 328 327 326 324 322 321 322 323 323 325 329 333 335 335 334 332 331 330 330 330 328 326 327 327 328 330 331 330 329 327 327 329 331 332 332 333 335 333 330 329 328 326 323 326 329 329 328 328 327 328 328
337 337 336 335 333 332 331 331 330 330 330 329 328 328 326 324 322 322 322 324 328 332 335 336 335 334 333 332 332 331 331 331 329 327 326 327 329 330 329 328 328 328 331 334 335 335 335 334 331 330 329 328 325 322 325 329 330 330 329 327 328 328
339 339 339 337 335 333 332 331 331 331 331 331 330 330 327 324 322 321 323 327 332 335 336 336 335 334 334 333 332 331 331 331 330 328 326 326 330 331 330 330 328 328 332 335 336 335 335 333 331 330 330 327 325 325 326 329 330 331 329 328 328 329
339 339 339 338 336 334 333 333 333 333 332 332 331 329 327 325 324 324 327 332 335 336 336 336 335 335 334 334 333 331 329 328 328 329 328 328 331 331 331 331 328 329 334 336 336 336 335 333 331 331 330 327 326 329 328 328 330 330 329 328 329 329
339 340 339 339 337 335 334 336 336 335 333 333 332 330 330 330 331 331 333 336 336 336 336 336 336 336 334 333 333 331 328 325 325 328 328 329 330 330 331 331 329 332 336 336 336 336 335 334 331 331 330 326 325 329 329 329 330 330 329 329 329 329
340 340 340 339 338 336 336 337 337 336 335 335 335 335 335 335 335 335 336 337 337 337 337 337 337 336 335 334 334 333 329 326 326 327 327 329 330 330 330 330 330 334 337 337 336 336 335 334 331 331 330 328 326 328 330 329 329 329 329 329 329 329
340 340 340 339 339 337 336 337 338 338 337 336 337 337 337 336 335 335 335 337 338 338 338 338 337 336 335 335 335 334 331 327 326 325 325 328 329 329 330 330 333 336 337 337 336 336 336 334 331 330 331 330 326 324 326 329 329 328 328 329 329 329
340 341 340 340 340 339 337 338 338 338 338 337 337 337 337 337 336 335 335 335 337 338 339 338 338 337 336 336 335 335 332 326 322 321 323 326 326 327 329 332 334 336 336 337 336 336 336 333 332 331 330 329 327 322 322 326 328 327 327 328 328 329
341 341 341 340 340 339 338 338 338 339 339 338 338 337 337 337 337 336 336 335 336 338 339 339 338 337 336 336 335 335 333 325 318 316 321 325 325 326 329 333 335 336 336 337 336 336 336 334 332 331 330 329 327 324 321 324 328 328 327 326 327 328
341 341 341 341 340 339 339 339 338 338 339 339 338 338 338 338 337 337 337 337 337 338 339 339 339 337 336 335 335 335 333 327 318 315 319 326 328 328 331 334 336 336 336 336 336 336 336 334 332 331 330 329 327 325 323 323 326 328 327 326 326 327
341 341 341 341 341 339 338 339 339 338 338 338 339 339 339 339 339 339 339 339 338 338 339 339 339 338 336 335 335 334 334 330 322 317 319 326 329 330 333 336 336 336 335 333 334 335 335 334 333 332 331 330 328 327 325 323 324 325 326 326 325 326
341 342 342 341 341 339 338 339 339 339 339 338 338 338 339 339 339 339 340 339 338 338 338 339 339 338 336 335 335 334 334 333 329 323 321 325 330 332 336 337 336 334 332 329 329 333 334 334 333 333 332 331 330 329 327 324 323 323 323 324 325 325
341 342 342 341 341 339 338 339 339 339 340 339 339 338 338 338 339 339 340 339 339 338 337 338 338 338 337 335 335 334 334 334 333 329 325 325 328 331 335 336 334 334 332 328 327 332 335 334 334 333 332 332 330 329 327 325 324 324 323 323 324 324
342 342 342 342 341 340 338 339 340 339 339 339 340 339 338 338 338 339 339 339 339 338 337 336 336 336 336 336 335 335 334 334 335 333 330 328 327 330 333 334 335 334 333 330 329 332 335 335 334 333 333 332 330 328 327 325 324 323 322 323 323 323
342 342 342 342 342 340 339 339 340 340 339 339 339 339 339 339 338 338 338 338 338 338 338 336 335 335 335 336 335 335 335 335 335 335 334 331 328 328 331 332 335 335 333 331 330 331 334 334 333 332 333 332 328 326 325 324 322 320 318 320 321 322
342 343 342 342 342 341 339 340 340 340 340 339 339 339 339 339 339 338 338 338 338 338 338 337 336 335 335 336 335 336 336 335 335 335 336 333 326 325 329 331 334 336 334 332 329 329 332 333 331 331 332 330 325 323 323 323 321 318 316 316 316 317
342 343 342 342 342 341 340 340 341 341 340 340 340 340 340 339 339 339 338 338 338 338 338 338 336 335 335 335 336 336 336 336 336 335 336 335 329 327 329 331 333 334 334 332 329 329 331 331 330 330 331 328 323 322 322 321 320 317 315 314 314 315
342 343 343 342 343 342 340 341 341 341 340 340 341 341 341 339 339 339 338 338 338 338 338 338 336 335 335 336 336 336 337 337 336 336 335 336 333 331 331 333 333 334 333 332 331 331 331 330 330 330 330 327 323 321 320 319 319 316 314 313 313 313

ECMWFFLT2_850_thetae_174.txt.gz
Theta_e
334 334 335 336 335 329 323 323 324 324 325 324 323 322 322 322 323 324 323 323 322 321 321 319 318 318 319 321 319 314 311 311 311 311 311 312 312 312 312 312 312 313 312 312 313 312 313 316 315 317 320 323 327 329 331 332 333 331 330 331 332 333
337 336 336 337 337 332 325 323 324 325 326 325 326 326 327 326 328 331 329 327 328 329 328 322 319 319 319 321 320 316 313 311 312 311 311 312 311 312 312 312 312 312 312 312 312 312 316 317 316 318 322 325 328 331 333 333 333 333 332 333 334 333
339 337 339 338 338 336 329 326 327 329 331 333 332 330 333 333 333 336 335 334 335 337 335 328 324 321 318 319 320 319 316 314 313 311 312 311 312 312 312 312 312 312 312 313 314 318 324 325 322 322 325 327 331 332 333 332 332 333 333 333 334 332
341 339 341 340 339 338 333 331 334 336 336 338 336 335 336 337 336 337 337 337 338 339 337 334 328 320 319 321 319 319 318 317 315 314 312 311 311 311 312 312 312 313 315 317 322 325 326 327 327 327 329 331 333 334 333 332 333 333 333 334 334 332
343 341 341 341 339 339 336 334 337 338 338 339 338 337 338 337 337 337 338 338 338 338 339 338 331 320 325 327 321 319 318 318 318 316 315 313 312 311 312 312 313 315 319 323 326 327 324 326 330 330 332 333 334 334 334 334 334 334 334 334 334 333
343 342 341 342 341 340 337 335 338 339 338 340 339 338 338 338 337 337 338 339 338 339 338 340 335 325 329 331 325 321 318 319 319 318 318 316 314 312 312 312 314 317 321 324 324 323 320 324 330 332 333 334 335 335 334 334 334 335 335 336 335 334
343 342 342 341 340 341 339 336 338 340 338 339 339 338 338 338 338 338 338 339 338 338 339 340 337 331 332 333 330 325 321 320 319 319 319 318 317 313 313 313 315 318 321 323 322 323 324 326 330 331 333 333 334 335 335 335 335 335 336 336 335 334
343 342 342 341 340 341 340 338 338 339 339 339 339 339 339 338 338 338 338 338 337 338 339 339 338 336 336 335 332 328 325 322 319 319 318 319 319 317 317 316 317 318 319 321 325 328 329 331 331 332 332 333 335 335 335 335 336 336 335 335 335 334
342 342 341 341 341 341 339 338 338 339 339 339 339 339 339 339 338 339 338 337 337 337 337 338 338 338 338 336 332 329 325 321 318 319 318 319 320 319 319 318 317 318 319 322 328 331 331 332 332 332 332 332 334 335 336 337 336 336 335 335 335 334
341 341 341 340 340 341 340 339 339 339 339 338 339 339 339 339 338 339 338 337 337 337 335 336 337 337 337 336 333 328 324 322 319 318 318 319 320 320 319 319 317 318 321 325 329 331 330 331 332 332 332 332 334 336 337 338 336 336 335 335 335 335
339 341 341 339 340 341 340 339 339 338 339 339 338 339 338 339 339 338 338 337 337 335 333 334 336 336 336 335 331 329 328 324 320 318 318 318 319 320 320 319 318 318 323 328 331 332 330 331 331 330 332 333 335 337 337 337 336 335 334 334 334 335
340 340 339 340 341 340 341 339 339 338 339 339 337 338 339 338 338 338 337 337 336 334 331 330 333 333 331 330 328 328 329 323 319 319 318 318 319 320 320 320 319 317 319 323 328 332 331 331 331 330 331 333 337 337 337 337 335 335 334 333 333 334
342 341 339 341 341 340 341 339 339 338 338 338 336 336 338 338 338 337 337 337 337 334 328 323 327 327 325 324 323 325 329 325 319 320 318 318 319 319 321 320 320 318 316 317 324 331 332 331 331 331 331 334 338 338 337 336 335 335 334 334 333 332
343 343 341 341 341 341 341 339 339 338 337 337 336 336 337 337 337 337 337 337 336 335 329 321 320 321 319 319 318 318 323 322 318 320 320 318 318 319 320 320 322 321 319 321 328 333 332 332 331 332 334 336 338 338 337 336 335 335 333 333 332 331
344 344 343 342 342 341 340 339 339 338 338 336 336 337 337 338 338 337 337 337 336 335 330 323 318 317 315 315 316 313 314 316 316 318 320 319 319 318 319 320 322 325 327 327 331 334 333 333 331 333 338 338 338 338 337 336 336 334 333 332 331 331
344 345 344 343 342 341 340 340 339 338 338 336 335 336 337 338 338 337 337 337 336 334 331 326 320 320 319 316 318 318 315 317 318 317 318 320 320 319 319 320 321 324 331 332 331 333 333 333 333 335 338 339 338 337 336 337 336 334 332 332 331 332
345 345 344 342 342 341 340 340 339 338 337 336 334 335 337 338 338 337 337 337 336 334 331 328 326 326 324 322 323 325 322 319 317 316 317 318 320 323 321 319 318 319 327 332 331 332 333 333 335 337 338 338 338 337 336 336 335 333 331 331 331 332
344 344 344 343 341 341 340 339 339 339 337 335 335 336 337 337 337 337 336 336 336 334 332 330 330 330 327 326 327 328 328 324 321 318 318 319 321 325 324 320 320 320 322 329 332 332 333 335 335 338 338 338 336 335 335 335 334 333 331 332 331 331
344 343 342 342 342 341 340 339 338 338 337 336 336 337 337 337 337 336 336 336 336 335 334 330 330 331 329 329 330 331 332 331 329 326 323 324 325 325 325 319 322 325 323 326 332 333 334 335 336 338 337 336 335 333 332 332 332 332 332 332 330 329
344 343 341 340 340 340 340 339 338 338 338 337 337 337 337 337 336 335 336 335 335 335 334 330 329 331 331 332 334 334 334 334 333 331 328 329 330 331 327 320 322 328 327 327 331 333 334 334 336 337 336 335 335 332 330 329 328 330 331 331 330 330
343 341 338 340 340 340 340 339 338 338 337 337 337 337 336 336 336 335 335 336 335 335 334 332 329 332 334 334 335 335 334 334 334 333 331 330 331 332 330 326 326 328 329 331 333 334 332 332 335 337 336 336 334 332 329 326 326 329 329 331 332 331
342 338 338 341 340 339 340 339 339 338 338 338 337 337 336 336 336 334 334 334 335 335 335 333 332 334 336 336 336 335 335 335 334 334 332 330 330 330 329 329 329 329 330 331 334 334 329 329 335 336 333 333 334 333 331 328 326 328 328 330 332 332
340 337 339 341 340 339 338 338 339 339 339 338 338 337 337 337 335 332 329 329 332 335 335 335 334 335 336 337 336 335 335 333 332 332 330 329 329 329 328 327 328 331 332 332 333 332 328 331 334 333 331 330 332 333 332 331 329 329 329 331 332 332
338 338 341 341 339 338 337 338 339 340 340 339 338 338 337 336 335 331 329 332 334 334 335 335 335 335 336 337 335 335 335 332 331 331 330 330 329 329 329 328 327 330 332 333 334 329 328 333 333 331 330 330 330 330 330 332 332 330 330 331 332 332
337 339 342 340 338 337 338 339 339 339 339 338 338 338 337 336 334 331 332 335 335 335 335 335 335 335 336 336 336 336 336 334 332 330 329 330 331 332 331 330 330 329 329 331 334 332 329 332 333 330 330 328 329 328 328 332 332 330 329 330 331 331
338 340 341 340 337 337 338 337 337 338 338 338 339 338 338 337 336 334 334 335 335 335 334 335 336 335 335 336 336 336 336 336 336 333 330 330 331 331 331 331 332 331 330 329 331 334 333 333 333 331 329 327 328 328 327 330 330 329 330 330 329 330
339 341 341 339 335 334 335 335 337 338 338 338 338 338 338 337 336 336 335 335 335 334 334 335 334 333 335 337 336 336 336 337 338 336 334 331 329 328 330 332 333 333 334 332 329 331 334 335 334 331 328 326 328 329 326 327 328 329 330 331 329 329
340 342 341 338 330 330 335 337 338 339 338 339 339 339 338 337 336 336 336 336 335 334 334 333 332 333 336 337 337 337 336 336 338 337 335 332 327 326 328 332 333 331 332 332 330 329 333 335 332 329 328 327 329 330 328 325 326 327 329 331 331 330
341 342 340 334 327 332 338 339 339 339 338 339 339 338 338 337 337 337 336 336 336 335 333 331 332 336 337 338 337 336 336 336 337 336 335 334 329 326 328 330 329 328 328 329 329 329 332 334 331 329 330 329 329 330 330 328 327 327 328 329 330 330
342 342 337 329 329 336 339 340 340 339 339 339 339 338 338 338 337 337 336 336 336 335 331 330 334 337 337 338 337 336 336 336 336 335 335 333 329 326 327 328 327 327 328 327 327 329 332 334 333 331 332 330 329 331 330 330 329 329 329 330 329 330
343 341 335 328 333 338 341 341 340 339 339 338 338 338 338 338 337 337 336 336 335 335 334 334 337 338 337 337 337 336 336 337 336 335 334 334 330 326 326 327 326 326 328 327 327 329 333 334 333 332 332 331 330 331 331 330 329 329 330 330 328 329
342 341 335 329 335 339 341 341 340 339 338 337 338 338 339 339 338 338 337 337 336 337 338 338 338 339 338 337 338 338 337 337 336 335 335 335 332 329 326 326 325 326 328 327 327 330 334 334 331 331 332 331 330 330 331 331 329 328 329 330 328 328
342 338 333 332 336 339 341 342 340 340 339 337 338 339 339 339 339 339 338 338 338 338 339 339 339 339 338 338 338 338 338 337 337 336 335 335 335 333 330 326 325 327 329 327 327 332 334 333 332 331 330 331 331 330 330 330 330 329 329 330 329 327
341 333 330 333 337 340 342 342 341 340 339 338 339 339 340 340 340 339 339 339 339 338 338 338 338 337 337 337 337 338 337 337 337 337 336 335 335 335 334 331 327 326 328 327 329 332 332 332 332 330 330 332 332 331 329 330 331 330 329 330 330 328
337 330 331 333 337 341 342 342 341 340 340 340 340 341 341 341 341 341 340 339 339 339 340 339 337 336 336 336 337 337 336 337 338 337 336 335 335 335 335 334 332 329 327 326 328 331 330 331 332 332 331 332 332 330 328 329 331 331 329 329 330 329
332 329 332 334 337 342 343 342 342 341 340 341 341 342 342 342 341 340 340 340 341 341 340 340 338 337 337 337 337 337 336 336 335 335 336 335 334 335 335 335 334 331 328 325 326 328 330 332 333 333 333 333 333 330 328 329 331 330 328 328 329 329
330 330 333 333 337 342 343 343 343 342 340 340 341 341 342 342 341 340 340 341 342 341 339 339 338 337 337 338 338 338 337 335 334 334 334 334 333 334 335 334 334 333 329 326 325 326 329 331 333 333 333 334 333 331 330 330 330 329 327 326 326 328

ECMWFFLT2_850_thetae_180.txt.gz
Theta_e
323 321 321 320 319 320 320 322 323 323 322 320 320 320 323 325 327 328 329 330 329 329 330 327 323 322 322 320 315 315 316 315 316 317 316 314 312 312 313 313 313 314 315 314 313 313 312 316 323 325 325 324 326 331 334 335 334 334 334 333 333 334
323 321 322 321 319 319 320 322 323 324 324 322 320 320 322 324 327 329 329 332 330 330 331 327 325 323 321 321 315 314 316 316 315 316 315 314 313 312 313 313 313 314 313 314 313 313 315 322 329 330 329 330 332 334 334 334 334 334 334 334 334 334
323 322 322 321 320 319 319 322 323 324 324 323 321 320 322 324 328 330 330 332 331 331 330 327 328 325 322 321 316 313 314 316 316 315 315 313 313 312 312 312 313 313 313 313 312 317 324 327 330 331 330 331 333 334 335 334 334 334 334 335 335 334
323 322 322 321 320 319 319 321 322 324 324 323 322 320 321 324 329 330 330 332 332 331 329 329 330 328 326 322 316 314 312 313 316 315 315 314 313 313 312 313 313 312 313 313 314 322 329 329 329 330 330 330 333 334 335 335 334 334 335 336 336 335
323 322 321 322 320 320 319 319 321 323 323 323 322 320 320 324 329 331 332 334 335 331 330 334 334 329 330 326 317 315 312 312 313 313 314 313 313 313 312 312 312 313 313 313 317 325 330 329 329 328 329 331 332 334 335 335 334 334 334 336 336 336
324 323 322 323 321 321 319 319 320 321 322 322 322 320 320 323 329 334 333 335 337 332 332 339 338 331 330 330 324 317 314 312 312 312 312 312 312 312 312 313 312 313 313 314 321 328 330 329 326 325 328 330 332 333 334 334 334 334 334 335 336 336
325 324 323 325 323 322 321 319 320 320 321 321 321 320 321 325 329 334 334 335 337 334 335 340 341 336 331 333 332 323 316 313 313 312 311 312 312 312 313 311 313 316 317 319 326 330 330 329 326 326 327 328 331 332 333 334 335 335 335 335 336 336
328 325 324 328 325 322 322 321 320 320 320 321 322 321 323 328 331 333 334 334 335 335 337 340 341 339 334 335 337 333 326 317 313 314 316 316 316 322 322 316 320 327 327 326 329 330 329 327 327 329 330 330 331 332 333 334 335 336 335 335 336 335
331 327 326 330 328 324 324 324 322 321 322 322 323 323 326 331 332 333 334 334 334 337 339 340 342 340 336 336 338 338 335 327 321 325 331 328 325 333 332 325 328 333 331 329 329 329 328 326 327 328 330 331 332 332 334 334 335 335 334 335 335 334
334 330 328 331 331 327 326 327 328 325 325 326 325 325 329 334 335 336 338 337 335 339 341 340 341 341 337 337 339 338 337 335 333 334 339 338 332 335 332 327 331 332 329 330 328 326 327 328 328 329 329 330 331 333 334 334 335 334 333 334 335 333
338 332 331 332 333 331 328 331 332 329 331 331 327 328 332 337 339 339 340 338 338 340 342 341 341 342 339 337 340 339 338 338 338 336 339 340 335 334 333 328 330 330 327 329 328 325 328 329 329 329 329 329 331 333 334 334 334 333 334 335 334 333
339 334 334 335 337 336 331 333 334 331 336 335 330 331 336 340 340 340 340 339 339 340 341 342 342 341 338 337 340 339 338 338 339 338 339 340 337 334 335 332 330 330 326 326 329 328 329 331 330 329 328 328 332 334 334 335 334 334 335 334 333 332
341 335 337 340 341 341 334 336 337 333 339 338 335 337 338 341 340 340 341 340 340 340 341 342 341 340 338 338 339 337 337 337 337 338 337 339 338 336 335 335 334 332 328 324 327 332 332 331 330 330 328 329 333 334 335 335 334 333 334 334 333 331
343 338 340 342 344 343 336 338 340 336 340 340 338 340 339 340 341 340 341 341 340 339 339 340 340 341 339 338 338 337 337 337 336 337 337 337 338 339 337 336 336 333 327 321 323 329 330 328 329 330 330 332 333 333 334 334 333 334 334 334 333 332
345 342 342 344 344 343 338 339 342 339 341 341 339 341 340 340 340 341 341 341 340 339 339 338 339 340 339 338 338 338 338 337 336 336 338 338 338 339 337 335 336 333 327 322 319 322 326 329 330 330 331 333 333 332 334 334 334 335 334 333 332 332
346 343 343 345 344 343 340 340 342 340 341 341 340 341 340 340 340 341 341 340 339 339 338 337 338 338 337 338 338 337 337 337 337 336 337 338 337 337 335 332 333 333 330 328 324 323 327 330 331 331 330 332 332 332 333 333 335 336 334 332 332 332
346 344 343 344 344 343 341 340 341 340 341 341 339 340 341 340 340 340 341 340 339 339 338 336 335 336 337 337 336 336 337 336 337 338 337 338 338 335 331 331 331 330 329 330 331 328 328 330 331 332 331 332 333 332 332 333 335 334 332 333 333 332
346 344 343 344 343 343 342 341 341 340 341 341 339 339 340 340 340 340 340 340 340 339 338 336 334 335 336 336 335 336 336 335 335 338 336 337 339 335 331 333 333 329 327 328 333 332 329 331 332 332 333 335 334 334 333 333 335 334 332 333 333 333
346 345 344 344 343 343 342 341 341 341 340 341 339 339 340 340 340 339 340 340 340 339 338 337 335 334 335 334 333 335 336 335 333 335 335 334 337 334 332 337 337 332 327 325 328 331 331 332 332 333 334 336 336 334 333 332 333 333 333 333 333 332
346 345 344 344 343 343 342 341 341 340 341 341 340 339 340 339 339 339 340 340 340 339 338 337 336 334 332 330 331 335 337 337 334 333 333 332 333 331 328 333 338 336 331 326 324 326 331 333 333 334 335 337 337 334 333 332 331 332 333 333 333 332
347 345 344 343 343 343 343 341 341 340 341 341 339 340 340 339 339 339 340 340 339 339 337 337 336 335 333 328 330 336 337 338 337 334 332 329 330 332 331 332 337 337 332 330 326 323 328 333 334 335 336 336 335 334 333 332 330 330 332 334 333 332
347 346 344 342 342 343 343 341 341 341 341 341 340 340 340 339 339 339 339 339 338 339 338 337 336 335 334 330 331 337 337 337 337 334 332 329 328 331 335 336 336 336 332 333 334 327 325 333 335 334 335 336 336 335 333 331 330 330 330 333 334 332
347 346 344 343 342 343 343 341 341 341 341 341 340 340 341 340 339 339 338 338 338 339 338 337 335 335 335 331 331 337 338 336 335 333 332 334 331 329 335 339 336 335 334 335 338 334 328 331 334 334 335 337 337 336 335 333 331 330 329 333 335 334
346 346 344 343 342 343 343 342 342 342 341 342 340 339 340 339 339 339 338 338 338 339 338 337 336 335 336 333 332 337 338 336 333 332 333 334 333 330 333 339 338 337 337 337 338 336 333 332 332 334 336 337 337 336 337 335 334 331 329 332 334 334
346 346 345 343 343 344 344 343 343 342 342 342 341 339 339 339 339 339 339 338 338 338 337 336 336 335 336 334 332 335 339 337 332 331 334 335 334 333 334 336 338 338 338 338 337 335 334 334 332 334 336 337 336 335 336 336 335 334 330 330 332 332
346 346 345 344 344 344 343 343 343 343 342 341 339 338 339 340 339 339 339 339 338 337 336 336 336 335 336 336 333 334 337 337 333 330 334 336 335 336 337 337 337 337 336 336 337 335 335 335 334 334 335 336 336 335 335 335 335 335 333 331 331 331
345 346 346 345 345 344 344 343 343 342 341 340 339 338 339 340 339 339 339 339 338 337 335 336 337 336 337 337 333 332 335 337 336 333 333 335 335 336 337 337 337 337 335 335 336 336 336 336 336 335 333 333 334 334 335 335 334 334 335 334 332 330
345 346 346 346 345 344 343 342 342 341 340 340 340 338 339 340 339 339 339 338 337 336 336 336 337 338 337 337 334 332 335 339 339 336 333 333 335 337 337 336 336 337 336 335 335 335 336 336 336 336 334 332 332 332 333 333 332 333 334 334 334 332
346 346 346 346 345 343 342 341 341 341 340 340 341 340 339 340 340 340 339 338 337 336 336 336 338 338 338 337 335 333 336 339 339 338 336 334 335 336 338 336 335 336 336 336 335 335 335 335 335 336 335 334 332 331 332 332 330 330 333 334 334 334
346 346 346 346 344 343 341 341 342 342 340 339 341 341 339 340 340 340 339 338 337 336 336 337 338 338 337 338 337 336 337 338 338 339 339 338 338 337 337 337 335 334 335 336 336 335 335 335 335 334 335 335 334 333 332 331 328 328 330 332 332 334
346 346 346 345 343 342 341 341 341 342 341 339 341 341 340 340 340 340 339 338 337 336 336 338 338 336 336 339 340 337 338 338 337 338 340 340 340 339 338 337 335 335 335 334 334 334 335 335 335 334 335 336 335 333 332 330 328 328 330 331 331 332
346 345 345 344 342 341 341 342 341 341 339 338 341 342 341 341 340 339 339 337 337 337 337 338 337 335 335 339 341 338 338 339 338 338 339 339 339 339 339 338 336 335 333 332 330 330 333 334 334 334 335 335 335 333 333 332 331 331 333 332 332 332
346 345 344 343 342 341 341 342 340 338 338 338 341 343 341 341 340 339 339 337 337 338 337 337 336 334 332 336 340 339 337 338 338 339 339 339 339 339 339 338 337 335 332 330 328 328 331 332 333 333 332 333 334 332 332 333 334 333 333 333 332 332
345 344 343 342 341 341 340 340 339 337 339 340 341 342 341 341 340 340 339 338 338 338 337 336 334 333 329 331 339 340 336 336 339 340 340 339 340 339 339 338 337 336 333 330 329 329 330 331 332 333 331 331 332 331 328 329 332 333 333 333 331 330
345 344 343 342 341 341 340 339 339 339 340 341 341 341 341 342 341 340 340 339 338 338 338 337 334 332 329 330 338 339 336 337 339 340 340 340 340 340 339 339 337 337 335 333 332 330 329 330 332 333 332 331 331 330 326 327 331 331 332 334 331 328
345 344 344 343 341 341 341 340 340 341 341 341 342 342 342 342 341 340 339 339 339 338 338 338 334 333 333 333 336 337 337 339 339 340 341 340 340 340 339 338 338 337 336 335 334 331 329 330 332 333 332 332 331 329 327 330 333 329 330 333 331 328
345 345 344 343 341 342 342 341 341 341 342 342 343 342 342 341 339 339 339 339 340 338 337 337 335 334 337 337 335 337 339 340 340 340 341 341 341 340 339 339 338 337 336 336 335 333 331 330 331 331 331 332 332 331 331 333 333 328 330 334 330 328

ECMWFFLT2_850_thetae_186.txt.gz
Theta_e
319 319 318 318 318 318 318 317 318 318 319 321 321 322 323 323 323 324 325 325 324 322 319 317 315 314 313 315 317 316 313 313 314 313 313 313 314 315 316 316 316 315 314 313 314 320 328 329 329 331 333 333 332 331 332 333 333 333 334 334 334 334
319 319 319 318 318 318 318 317 317 318 319 320 321 321 321 322 322 323 324 324 322 320 317 316 315 313 313 313 315 316 314 312 313 313 313 313 313 314 314 314 314 314 314 313 313 319 327 329 329 331 332 333 332 333 334 334 334 333 333 334 334 334
319 319 319 318 318 318 318 318 317 317 318 320 321 321 321 320 320 321 321 321 320 318 316 316 315 313 312 313 314 315 314 312 313 313 313 313 313 314 313 313 313 314 314 313 315 321 327 329 329 330 331 333 332 332 334 334 334 334 334 333 334 335
320 319 319 319 318 318 318 318 318 317 317 319 320 320 320 319 318 319 318 319 319 317 316 316 315 314 313 313 313 314 315 313 312 312 313 313 313 313 313 313 313 313 313 313 321 327 327 328 328 328 329 331 333 332 333 334 334 334 333 334 334 335
320 319 319 319 318 318 318 318 318 318 318 318 319 319 319 318 317 317 317 318 318 317 316 316 315 314 313 313 313 313 314 313 313 312 313 313 313 313 313 313 313 313 313 314 324 328 326 326 326 326 326 328 331 331 332 333 334 334 334 334 334 334
320 319 320 319 319 318 318 318 318 317 318 317 318 319 318 318 318 317 317 317 318 317 316 316 315 314 313 313 314 314 313 313 313 313 313 313 313 313 313 313 312 313 313 315 324 326 324 326 326 326 325 326 329 331 332 333 334 334 334 334 334 335
321 320 319 319 319 319 318 318 318 318 318 318 318 318 318 318 318 318 317 317 317 317 317 316 315 315 314 313 314 314 314 313 313 313 313 313 313 313 313 313 312 313 313 315 322 325 325 327 326 327 327 326 329 331 332 333 333 334 335 335 334 334
320 320 320 319 319 319 319 318 318 318 318 318 318 318 318 318 319 318 318 317 317 317 317 316 316 316 314 313 314 314 314 314 314 313 313 313 313 313 313 313 312 313 313 314 321 325 325 326 326 327 327 327 328 330 332 333 333 334 335 334 333 333
320 320 320 320 320 319 319 319 318 318 318 318 318 318 319 319 319 319 318 318 317 317 317 317 317 316 315 314 313 314 314 314 314 313 313 313 313 313 313 313 313 313 313 315 322 325 325 326 327 327 327 327 327 329 331 332 333 334 334 333 333 333
320 321 320 320 320 320 319 319 318 318 318 318 318 318 319 319 320 320 319 319 318 318 318 317 317 317 316 315 314 314 314 314 314 314 314 313 313 313 313 313 312 312 313 316 322 325 326 327 327 327 327 327 327 328 331 332 333 334 333 333 333 333
321 320 320 320 320 320 319 319 319 318 318 318 318 318 318 319 320 320 319 320 319 318 318 318 318 318 317 315 315 314 314 314 314 314 313 313 313 313 312 313 313 313 315 319 324 326 326 326 327 327 327 327 327 328 331 333 334 334 333 333 332 332
321 320 320 320 320 320 319 320 319 319 318 318 318 318 318 319 319 320 320 320 320 319 319 318 318 318 317 317 316 315 315 314 314 314 313 313 313 314 315 317 319 318 318 321 324 326 326 326 329 330 329 328 328 329 332 333 334 334 333 332 332 332
321 321 320 320 320 320 319 319 319 319 319 318 318 318 318 318 318 319 319 320 320 320 320 319 319 319 318 318 317 317 316 315 315 315 314 313 314 317 322 326 326 324 323 322 322 325 327 328 330 331 330 329 329 331 333 334 334 333 333 332 332 333
322 321 321 321 320 320 319 319 319 319 319 319 319 318 318 318 318 318 318 319 319 320 320 320 319 319 320 319 319 318 317 317 316 316 315 316 318 322 328 332 332 330 329 324 321 324 328 329 330 331 330 330 330 332 334 334 334 333 333 333 333 333
325 322 322 322 321 320 319 319 319 319 319 319 319 319 319 318 317 317 318 318 318 319 321 321 321 322 322 321 320 319 318 318 318 318 318 320 324 328 332 334 334 333 332 328 323 323 327 329 330 331 330 331 331 333 334 334 333 333 332 332 332 332
328 324 323 324 323 321 321 320 319 319 318 319 319 320 319 319 318 318 317 318 318 318 320 322 323 324 325 324 322 321 320 320 321 322 323 326 331 334 336 336 335 334 334 332 327 324 325 328 329 330 329 330 332 334 334 333 332 332 331 331 332 332
329 325 323 325 325 323 322 322 321 320 319 319 319 320 320 320 319 318 317 318 318 319 321 323 324 325 327 327 325 324 323 321 322 324 328 332 334 336 337 338 336 335 333 333 331 327 324 325 327 328 328 328 332 334 333 332 332 332 331 331 332 331
331 327 325 326 326 326 325 324 323 322 320 319 320 320 320 320 320 319 318 318 318 319 321 322 323 326 329 330 329 328 327 325 325 328 331 334 335 335 336 337 337 336 334 333 332 330 326 324 326 326 327 328 330 333 333 333 332 332 331 330 331 331
334 330 329 328 328 328 328 327 325 324 322 320 321 321 320 320 320 320 320 320 321 321 322 322 324 328 331 333 332 332 331 330 330 332 334 335 335 335 335 335 335 335 336 334 334 332 328 327 329 328 329 331 333 334 335 335 333 332 332 330 331 331
336 333 332 333 332 331 331 329 328 327 324 323 322 321 320 321 321 322 323 324 325 326 326 326 326 330 332 333 334 334 333 332 333 335 336 335 335 335 335 335 334 334 335 335 334 334 330 329 332 331 332 334 336 336 336 335 334 333 332 331 331 332
339 337 335 335 334 331 331 330 329 328 327 326 325 324 324 325 324 325 327 330 331 331 331 330 330 332 333 334 335 335 334 333 335 336 337 336 336 336 336 335 333 333 334 333 333 334 332 331 333 333 333 336 337 337 337 336 334 333 332 331 331 332
341 339 337 335 333 332 331 330 330 330 330 329 328 327 328 328 328 330 333 336 337 336 334 334 335 336 335 335 336 336 335 335 336 337 338 337 337 337 337 335 333 332 333 331 331 332 332 331 333 333 334 337 338 338 337 336 335 333 333 332 331 332
341 341 339 337 335 335 334 333 332 331 332 333 332 331 331 331 332 334 336 339 340 339 338 337 337 338 337 337 336 336 335 336 337 338 338 337 337 336 335 334 333 334 333 332 332 334 333 332 333 334 333 336 338 338 337 336 335 333 333 333 332 332
342 341 341 340 338 337 336 337 336 334 334 335 335 335 335 335 336 338 339 340 341 340 339 339 338 338 337 336 335 335 336 337 337 337 337 337 336 335 332 332 333 333 332 332 334 336 335 333 333 333 333 336 338 338 337 336 335 334 333 333 333 333
342 342 342 342 341 339 339 339 338 338 337 337 337 337 338 339 339 339 339 340 340 340 340 339 338 338 336 335 334 334 335 337 336 337 337 336 336 332 329 330 332 331 329 330 333 335 337 335 333 333 333 334 336 337 337 335 334 334 333 333 333 333
343 343 343 342 341 341 341 340 340 340 339 338 338 338 338 338 339 340 340 340 340 340 339 339 338 337 336 335 335 334 334 335 335 336 336 336 335 331 330 333 334 331 329 331 334 335 337 336 333 333 333 334 334 335 335 335 334 334 334 334 334 333
344 344 344 343 343 343 342 341 341 340 340 338 338 338 338 338 340 340 340 340 340 340 340 339 338 337 336 336 335 334 333 333 333 333 334 335 332 330 333 336 335 332 330 334 337 337 336 334 334 333 333 333 334 334 334 334 333 333 334 334 334 334
344 344 343 342 343 343 342 342 342 341 341 340 339 339 339 339 340 340 341 341 340 340 340 340 339 338 337 337 336 334 333 332 329 329 330 330 330 331 336 336 334 333 332 334 336 336 335 333 334 335 334 333 334 335 335 334 334 333 334 334 334 334
343 344 342 341 341 342 342 342 342 342 341 341 340 340 339 339 340 340 340 340 340 340 339 339 339 338 338 337 336 334 333 331 328 326 328 329 330 334 337 336 333 334 335 334 334 336 336 334 334 335 336 336 335 335 336 335 335 335 335 334 333 333
343 343 342 341 340 341 342 343 343 342 341 341 340 340 340 340 339 339 340 339 339 339 339 339 339 338 338 337 336 334 333 331 328 328 329 331 331 334 337 336 333 335 335 334 335 336 337 336 336 335 335 336 336 336 335 336 335 335 335 334 333 333
341 342 342 341 341 341 342 343 343 342 342 341 340 340 340 340 338 338 339 339 339 339 339 339 339 339 338 337 336 335 333 330 329 329 331 331 331 334 337 335 333 335 336 335 336 337 337 337 337 336 335 335 335 335 335 335 335 335 334 334 334 334
342 342 342 341 342 342 343 343 343 343 342 341 340 340 340 340 339 338 339 340 339 339 339 339 339 338 338 337 337 335 333 330 329 330 332 331 330 333 336 335 334 335 335 335 336 337 337 337 337 336 336 336 335 335 335 335 335 334 334 334 334 333
341 341 342 342 342 343 343 343 343 343 342 342 341 340 340 340 339 338 339 339 340 340 339 339 338 338 338 337 337 335 332 330 330 331 332 332 331 333 336 337 336 335 335 336 337 337 336 336 336 336 336 336 336 336 335 335 335 335 334 334 333 333
339 340 341 342 343 343 343 343 344 343 342 342 342 341 340 340 338 338 338 339 340 340 339 339 338 338 338 337 337 335 332 330 331 332 333 332 332 334 337 338 337 336 336 337 337 337 336 335 335 335 335 335 335 335 335 335 335 335 335 335 334 333
340 341 342 343 344 343 343 342 342 343 341 340 341 342 340 340 339 338 338 338 339 340 339 339 338 337 337 337 336 334 332 331 332 333 333 333 332 335 337 338 338 337 338 338 338 337 337 336 335 334 334 333 333 332 332 333 334 335 334 334 334 334
341 341 342 343 341 339 339 340 340 340 338 337 339 342 341 340 340 339 339 339 339 339 339 338 338 337 337 337 336 334 332 332 332 333 334 334 334 335 337 337 337 337 338 339 338 338 337 336 335 335 334 333 333 332 332 333 334 335 334 333 333 334
342 343 344 342 338 337 338 339 339 338 337 335 336 340 341 340 340 340 339 339 339 339 339 338 337 337 337 336 335 333 333 332 333 334 336 336 336 336 336 337 338 338 338 338 338 338 337 336 336 335 335 335 334 333 333 333 334 335 335 334 333 333

ECMWFFLT2_850_thetae_192.txt.gz
Theta_e
322 328 329 327 326 324 322 319 318 320 321 321 322 323 323 322 322 322 322 321 320 317 316 315 311 312 313 313 313 313 313 313 313 315 318 317 316 315 314 314 313 316 321 324 324 324 323 323 324 325 327 327 328 329 331 333 333 333 333 333 333 333
323 327 329 328 326 324 323 320 318 320 321 322 322 323 323 322 322 322 322 321 320 317 315 315 312 311 313 313 313 313 313 313 313 315 317 317 315 315 314 314 313 315 322 325 326 328 328 328 328 329 330 330 330 331 333 334 333 333 333 333 333 333
324 327 327 327 326 324 321 320 319 319 321 322 322 323 322 322 322 321 321 320 319 316 315 315 313 311 312 313 313 313 313 313 314 315 317 317 315 314 314 314 313 314 319 324 326 328 329 329 330 330 331 331 332 332 333 333 333 333 333 333 333 333
325 328 327 325 325 325 322 320 320 319 320 321 321 321 321 321 321 321 319 318 318 316 314 315 314 312 312 313 313 313 313 313 314 315 316 317 315 315 314 314 314 313 316 323 326 327 327 328 328 329 330 330 331 332 332 332 332 333 333 333 333 333
328 325 324 322 322 323 322 321 321 319 319 319 320 320 320 320 319 320 318 316 317 315 314 315 315 313 312 312 313 313 313 314 314 315 316 316 315 315 315 314 314 313 315 320 324 326 326 327 328 328 329 329 329 329 330 330 331 332 333 333 333 333
333 327 324 322 323 322 319 320 320 318 318 317 318 319 318 319 318 318 317 317 316 315 314 314 314 314 313 312 313 313 314 314 314 315 316 316 316 315 315 315 314 314 314 315 319 324 325 327 328 327 327 326 327 327 327 328 330 331 333 333 333 333
337 334 330 325 327 327 320 318 319 318 317 316 317 318 317 318 318 317 316 317 317 315 314 314 314 314 314 313 312 313 314 314 314 315 315 316 316 315 315 315 314 314 314 313 316 321 325 327 326 326 326 326 326 326 326 327 329 331 332 333 333 333
338 338 336 332 330 329 324 319 318 318 317 316 317 317 317 316 316 317 316 317 316 314 314 313 313 313 314 313 313 313 313 314 314 314 315 315 315 315 315 314 314 313 314 313 316 323 325 325 326 326 327 326 327 327 327 327 328 331 332 333 333 333
337 339 339 337 332 328 325 321 317 318 318 316 316 316 316 317 316 317 317 317 316 314 314 314 314 313 313 314 313 313 312 313 314 314 314 314 315 314 314 314 313 313 313 313 316 323 325 323 326 327 326 326 327 327 327 326 328 330 332 333 332 332
336 337 337 337 334 330 325 321 318 318 319 317 316 316 316 316 316 317 317 317 316 314 314 314 314 314 313 314 314 313 313 312 313 313 314 314 314 314 314 313 313 313 313 313 314 319 322 323 325 326 326 326 327 326 326 327 328 330 332 333 332 332
334 335 335 334 334 336 330 321 318 318 318 318 317 316 316 316 316 317 318 317 316 314 314 314 314 314 314 314 313 313 314 313 313 313 313 314 314 314 313 313 313 313 313 313 312 315 319 322 324 326 326 326 326 327 327 327 328 330 332 333 332 332
332 333 333 331 332 336 334 324 318 318 318 318 318 316 316 317 317 317 317 317 316 315 314 314 314 314 314 314 314 313 314 314 313 313 313 313 313 313 313 313 313 313 313 313 313 313 315 320 324 326 326 326 327 328 328 328 329 331 332 333 333 332
331 330 329 329 329 330 330 326 321 317 318 318 318 318 317 317 317 317 317 317 317 316 315 314 314 314 314 314 314 314 314 314 314 314 314 314 313 313 313 313 313 313 313 313 313 312 313 318 324 326 326 326 328 329 329 329 330 331 332 333 332 332
334 332 331 328 327 326 326 328 323 317 317 318 317 318 317 317 317 317 317 317 317 316 315 315 314 314 314 314 314 314 314 314 314 314 314 314 314 313 313 313 313 313 313 313 313 312 312 318 323 325 326 326 328 330 330 329 330 332 333 333 333 332
337 336 334 328 325 327 327 327 324 319 316 317 318 318 317 317 317 317 316 317 317 316 316 315 314 314 314 314 314 314 314 314 314 314 314 314 313 314 313 313 313 313 313 312 313 312 314 319 324 326 326 326 328 329 330 330 331 332 333 334 333 332
338 337 335 330 327 329 330 328 325 322 318 317 318 318 318 318 317 317 317 317 317 317 317 316 315 315 314 314 314 314 314 314 314 314 314 314 314 313 313 313 313 313 314 315 315 315 316 321 325 326 326 327 328 329 330 331 332 333 334 334 333 332
335 336 336 333 330 331 334 333 328 323 318 317 318 318 318 318 318 318 317 317 317 317 317 317 316 316 316 315 314 314 314 314 314 313 313 313 313 313 313 313 314 315 317 320 322 322 322 323 324 325 325 326 327 328 328 331 332 334 334 333 333 333
332 333 334 334 332 332 334 333 327 323 321 317 317 318 318 318 318 318 318 318 317 317 317 317 317 316 317 317 316 316 315 314 314 314 313 314 314 314 314 316 319 320 322 326 328 329 328 328 328 327 327 328 329 329 328 329 331 333 333 333 334 334
333 330 331 334 333 332 332 330 324 324 324 321 318 318 318 318 318 318 318 318 318 318 317 317 317 317 318 318 318 319 318 316 315 315 314 315 316 317 320 323 326 328 330 333 333 333 333 333 333 333 332 332 331 331 330 329 330 332 333 334 335 334
334 330 329 333 334 333 331 330 326 324 324 323 321 319 318 318 318 318 318 318 318 318 318 318 318 318 318 318 318 320 321 319 318 317 317 318 320 322 326 329 331 332 334 335 336 336 336 335 335 335 334 334 333 332 331 331 332 333 334 335 335 335
336 333 329 331 334 333 330 329 327 325 323 322 323 324 321 318 318 318 318 318 318 318 318 319 319 319 319 319 319 320 323 323 322 320 320 322 325 328 330 332 334 334 335 336 337 336 336 335 334 334 335 335 334 332 332 332 333 334 335 336 336 334
340 337 333 329 329 330 330 329 328 326 323 322 325 327 324 319 317 318 318 318 318 318 319 318 319 319 319 320 321 320 321 324 326 324 324 325 328 330 332 334 335 335 336 336 337 336 335 335 334 333 334 335 334 333 332 333 334 335 336 336 335 334
340 340 337 334 330 328 330 329 329 326 322 322 325 326 324 321 319 318 318 318 318 318 318 318 318 318 319 319 321 323 322 324 327 328 327 327 328 329 331 334 335 336 336 336 336 336 336 335 334 333 333 334 334 334 333 333 334 335 336 336 335 334
338 342 340 338 335 331 329 328 328 326 323 322 323 322 323 323 321 319 318 318 318 318 318 318 317 318 318 319 320 322 324 325 327 328 328 329 330 330 332 334 335 336 336 336 336 336 336 335 334 333 333 334 334 334 334 334 334 335 335 335 335 335
338 342 342 341 339 335 333 329 326 327 327 326 323 321 322 322 322 320 320 319 319 319 319 318 318 318 318 319 320 321 324 326 327 328 329 331 332 332 333 335 335 336 336 336 336 336 335 334 333 332 333 334 335 335 335 334 334 334 334 334 334 335
341 343 342 342 341 338 335 332 328 328 329 328 327 324 322 321 321 320 319 319 320 320 320 320 320 319 319 319 320 322 324 325 326 328 331 333 334 335 335 335 335 335 336 336 336 336 334 333 332 330 331 333 334 335 335 335 334 334 334 334 334 334
342 343 343 343 342 340 338 335 332 329 328 328 327 325 322 321 320 319 319 319 319 320 320 320 320 320 319 319 322 324 325 327 329 332 334 335 336 337 337 336 336 336 336 336 336 335 333 333 332 330 330 333 334 335 335 335 335 335 335 335 334 334
342 342 343 343 343 342 340 337 335 332 331 329 328 326 324 324 323 322 322 321 321 320 320 320 320 320 320 323 327 329 330 332 334 335 335 336 336 337 338 338 338 337 336 336 336 335 333 333 332 330 331 334 335 336 336 335 336 335 335 336 335 334
341 342 342 343 344 343 342 339 337 335 333 331 330 329 328 327 327 326 324 323 322 321 320 320 321 322 324 328 333 334 335 336 336 335 335 336 336 336 337 338 338 338 337 336 335 335 334 332 331 330 332 335 336 336 336 336 335 336 336 336 335 335
340 342 341 342 343 344 343 341 339 337 335 333 331 331 331 330 329 327 326 325 324 322 322 323 323 325 329 334 335 336 337 337 335 335 335 336 335 335 335 335 336 336 336 336 335 335 334 332 331 331 333 335 335 335 336 336 336 336 336 336 335 335
339 341 340 342 343 343 343 342 341 339 337 335 334 333 332 332 331 329 328 326 325 325 326 327 326 328 333 336 337 337 338 336 335 336 336 336 335 334 333 334 334 335 334 334 334 334 333 332 332 333 333 334 335 335 336 336 336 336 336 335 335 335
340 339 340 345 345 343 342 341 342 341 339 338 336 335 334 333 333 331 330 329 328 330 330 330 330 332 335 337 338 338 337 337 336 337 337 336 335 334 333 333 333 332 332 333 333 333 332 331 334 334 333 333 335 336 335 336 336 336 336 336 335 334
340 342 343 346 345 342 341 340 341 342 341 339 338 338 336 335 334 333 332 331 331 332 332 332 333 335 337 338 338 338 338 338 337 337 337 337 336 335 334 333 331 330 332 333 333 333 331 332 335 335 334 334 334 335 335 335 336 336 336 336 335 335
339 343 344 346 344 342 341 339 340 342 342 341 340 339 339 338 337 335 334 333 333 333 333 333 334 336 338 337 337 338 339 338 338 337 337 337 336 336 335 333 330 331 333 334 333 332 331 333 335 335 335 334 335 336 335 336 337 336 336 336 335 335
339 342 343 345 342 339 340 339 340 342 342 342 340 340 340 339 338 337 336 336 335 335 334 334 334 336 337 335 336 338 339 338 338 338 337 337 337 336 335 332 331 332 334 334 333 332 333 334 335 334 334 335 335 336 336 337 337 336 336 335 335 335
339 343 343 343 340 336 336 338 339 341 342 342 342 340 339 338 338 338 338 337 337 337 336 335 335 336 337 336 337 338 338 337 338 338 338 337 337 336 335 332 331 331 333 334 333 333 335 335 335 335 335 336 336 336 337 337 336 336 336 336 335 335
335 342 342 342 340 337 336 338 340 341 340 340 341 341 339 338 338 338 338 339 338 338 337 337 337 337 338 338 338 338 337 337 337 338 337 337 337 336 335 332 331 331 332 333 333 334 336 336 336 336 336 336 337 336 337 337 336 336 336 336 335 334

ECMWFFLT2_850_thetae_198.txt.gz
Theta_e
341 339 339 338 335 331 326 323 322 322 323 324 323 324 325 325 322 320 319 318 315 313 314 313 312 313 312 313 314 314 316 317 318 319 320 320 320 321 320 320 319 317 316 316 315 315 316 316 318 320 323 325 327 329 332 334 335 335 335 336 337 335
342 340 340 340 338 333 327 324 323 323 323 324 325 326 327 325 322 320 320 319 316 313 313 313 312 312 312 313 314 315 317 318 319 320 321 320 320 319 318 317 316 315 316 316 316 319 322 320 321 324 328 329 329 330 331 333 333 333 334 335 336 333
342 342 341 341 340 336 328 325 323 323 324 326 326 326 327 325 322 321 320 319 317 313 313 313 312 312 312 313 314 315 318 319 320 321 320 319 318 317 316 315 315 316 316 316 319 325 328 327 325 327 329 330 330 331 331 332 332 332 333 334 335 332
342 342 341 341 341 337 330 327 327 326 326 329 328 327 328 325 322 321 321 319 319 317 313 312 312 312 312 313 313 314 317 319 320 320 319 318 317 316 315 315 315 317 317 319 326 329 329 327 326 327 328 329 331 331 331 332 331 331 332 334 334 332
342 342 341 341 341 338 331 329 332 332 331 332 331 331 332 329 324 322 321 320 320 319 316 313 312 312 312 312 313 313 315 318 319 319 319 318 319 318 315 317 319 318 319 323 328 328 325 325 325 325 327 329 331 331 332 332 331 331 332 334 333 331
342 342 341 341 341 338 332 330 333 335 335 335 334 333 334 334 332 326 322 321 320 320 320 316 312 312 312 312 313 312 313 316 318 319 319 319 321 320 318 322 323 320 321 323 324 323 323 324 324 325 327 331 331 331 332 331 332 331 331 334 332 331
342 341 342 341 342 340 334 332 334 335 336 337 337 334 332 336 338 332 326 323 320 319 321 317 312 312 312 312 313 312 313 313 315 318 319 319 319 318 318 321 320 318 319 320 321 320 321 322 322 325 328 331 331 332 332 331 331 330 332 335 332 331
342 341 342 341 341 341 336 335 336 336 337 338 338 336 332 335 339 337 332 324 320 320 319 316 311 312 313 312 313 313 314 313 313 315 317 318 318 316 317 317 315 315 316 318 320 318 319 322 323 326 328 330 331 331 332 331 330 330 332 336 333 330
342 341 342 341 341 341 338 338 337 335 337 337 337 337 334 333 338 339 336 328 325 322 320 319 314 312 313 311 313 313 313 313 313 313 315 317 317 317 316 316 315 316 317 317 319 319 318 321 323 327 329 329 331 331 332 331 330 331 332 337 336 331
342 341 341 341 342 341 339 340 337 334 334 332 332 336 335 332 335 339 338 333 331 326 322 322 317 314 315 312 312 313 312 313 313 314 315 315 316 316 316 317 316 318 321 320 321 320 317 320 324 327 329 330 331 331 332 331 331 332 333 338 337 331
342 341 341 341 341 341 340 340 339 335 333 330 326 332 334 332 333 337 339 334 333 331 324 323 320 315 313 312 313 312 312 313 313 314 314 314 315 315 315 316 316 317 319 320 321 318 315 321 325 327 329 330 331 332 332 332 332 334 334 337 338 333
341 341 342 341 341 341 340 340 339 336 335 331 325 330 334 333 330 335 339 335 332 332 329 328 326 318 313 312 313 313 313 313 313 314 313 314 314 315 314 314 315 315 315 315 315 314 315 320 324 327 329 329 332 332 332 332 332 335 335 336 338 337
340 340 341 341 340 341 340 340 339 337 338 334 328 333 336 334 329 331 337 336 334 333 331 332 327 322 321 316 312 312 313 313 313 313 314 314 313 315 314 314 315 313 314 313 314 316 317 321 324 326 328 328 332 333 331 333 334 335 336 336 337 339
340 339 340 341 340 340 340 340 339 338 339 334 329 331 335 336 330 329 337 337 336 334 331 331 327 326 328 323 315 312 312 313 313 314 314 314 313 313 313 314 313 314 315 313 319 323 321 324 326 327 330 330 331 333 331 332 335 335 336 336 336 338
340 339 340 341 338 339 340 340 340 339 339 335 329 328 333 337 332 330 337 338 337 335 332 331 328 325 326 326 321 312 312 313 312 314 313 313 314 313 314 314 313 317 318 315 322 327 324 326 327 328 334 333 331 332 331 333 334 334 336 336 336 337
339 338 340 341 337 337 340 340 338 336 338 337 334 331 331 336 334 331 336 338 337 336 333 330 325 321 319 321 319 313 313 313 312 313 313 313 313 313 313 313 312 315 318 322 326 328 328 328 329 331 333 332 332 330 330 334 334 334 337 336 336 337
339 338 339 339 338 339 340 340 336 330 335 338 337 335 332 333 332 329 334 337 337 336 335 329 321 318 317 315 315 314 314 313 313 314 313 313 313 313 313 312 314 312 316 325 331 331 333 332 332 333 332 332 333 331 332 334 334 335 336 336 337 337
339 338 339 339 338 339 337 338 337 331 333 338 339 337 335 334 331 327 330 334 337 337 336 332 321 318 318 315 314 315 315 313 313 313 313 314 313 313 314 313 315 314 313 321 332 335 335 336 336 336 335 335 333 332 335 335 334 334 335 336 337 336
338 338 339 339 338 338 335 336 338 337 336 337 338 339 337 336 334 331 330 333 336 337 337 333 324 319 318 316 315 315 316 314 313 313 313 313 313 313 314 313 314 316 314 316 328 337 335 335 338 337 336 335 333 332 334 334 335 335 335 336 334 333
339 340 340 339 339 339 335 334 337 338 338 338 338 339 337 337 336 335 335 336 336 336 336 333 326 321 319 316 315 315 316 314 314 313 313 313 313 313 313 314 314 317 320 320 326 335 336 336 338 338 336 334 334 334 331 330 332 334 335 334 332 332
342 341 340 339 339 339 335 333 337 336 335 337 339 339 337 337 336 336 336 336 336 335 332 331 328 323 319 317 316 315 315 315 314 314 314 313 314 314 313 314 316 320 326 331 335 336 335 335 337 338 337 336 336 335 332 329 330 332 333 334 334 333
343 342 341 339 339 339 334 332 334 330 329 332 335 336 337 338 337 337 337 336 336 334 329 329 330 325 319 318 318 316 315 315 315 314 314 314 314 314 314 314 319 325 331 335 338 337 333 332 337 338 337 338 338 336 334 332 331 331 331 332 333 331
342 342 341 340 340 338 333 331 330 326 325 327 327 331 337 338 336 335 336 336 336 334 327 328 332 329 320 318 318 317 317 317 317 316 315 316 315 315 315 314 318 329 336 337 337 337 333 331 335 338 338 337 337 337 335 335 336 335 332 331 331 330
342 343 342 341 340 336 331 331 330 325 324 324 327 332 336 338 336 334 335 336 336 332 325 328 333 330 320 317 319 318 319 318 318 318 317 318 317 318 321 319 320 327 334 337 338 338 335 333 334 337 338 337 337 336 335 337 338 336 334 332 331 330
341 343 343 343 341 337 333 336 337 333 332 331 334 337 337 338 337 335 334 335 335 331 324 327 330 326 318 317 319 319 320 319 319 319 319 319 320 324 329 330 331 332 334 336 338 339 338 336 336 336 337 336 336 336 336 337 337 336 335 335 334 333
342 341 343 343 342 340 337 338 339 338 337 335 336 337 335 334 333 332 332 332 331 328 323 322 323 320 319 318 319 320 321 320 321 321 321 322 324 328 333 335 337 337 337 337 335 337 339 338 338 337 337 336 335 334 335 336 336 337 337 336 336 335
341 341 342 343 342 342 339 337 337 336 334 332 332 330 326 324 324 326 328 327 324 322 320 319 318 318 318 319 319 320 320 320 321 322 321 323 327 331 334 336 339 338 338 338 336 336 337 337 338 338 338 337 335 333 333 334 336 337 337 337 336 336
339 341 341 342 342 342 339 336 337 335 334 332 327 321 320 321 321 322 323 322 321 320 319 318 318 318 318 318 318 319 319 319 320 321 321 322 326 329 331 334 336 335 336 337 336 336 337 337 337 337 338 338 336 332 332 335 336 336 337 337 336 337
338 341 341 342 342 341 338 337 337 336 335 334 329 323 321 318 318 319 319 321 322 322 320 318 318 318 318 318 317 318 318 318 319 319 321 325 326 326 328 331 333 334 336 337 337 337 337 337 337 336 337 337 336 334 335 337 337 336 337 337 337 338
338 340 341 342 342 341 338 336 336 335 333 331 328 326 322 319 320 320 318 320 322 323 322 319 319 318 318 318 318 319 318 318 319 318 321 326 326 325 328 332 335 338 339 338 338 338 338 337 337 337 337 336 336 336 337 338 337 338 338 338 339 339
339 339 341 341 341 341 338 334 333 333 334 331 327 325 323 321 323 321 318 320 322 323 323 320 320 319 319 319 318 319 319 319 320 320 320 322 323 326 332 336 338 338 338 337 337 338 338 337 337 336 336 336 335 335 337 337 338 339 339 339 340 339
339 339 341 340 340 341 339 334 328 329 334 337 331 325 322 322 323 321 319 320 321 323 323 321 321 321 319 319 319 319 319 320 321 321 321 320 323 330 336 338 337 337 336 336 335 335 335 335 334 335 336 335 334 335 336 337 338 339 338 339 339 339
339 339 341 340 340 340 339 336 329 328 334 338 335 326 321 323 322 321 320 319 320 323 323 321 321 321 320 319 319 319 320 321 321 321 320 321 327 333 337 337 336 336 336 334 333 331 331 331 333 336 335 334 334 335 336 338 338 338 338 338 338 339
339 339 340 340 341 340 340 338 334 333 335 338 336 329 322 324 323 321 321 319 321 324 323 322 321 321 320 320 321 322 323 322 321 320 321 326 332 335 336 336 336 336 335 334 333 330 328 329 332 335 334 335 336 336 337 337 337 338 337 338 338 338
338 339 339 339 341 341 340 339 337 338 338 339 339 334 325 325 325 323 321 320 322 324 323 322 321 322 322 323 324 324 324 322 321 321 325 331 334 334 335 336 336 336 334 334 333 331 329 329 332 334 333 334 336 336 336 336 337 338 338 338 338 338
337 338 337 337 340 342 342 341 340 340 340 340 340 338 335 332 328 325 324 321 322 324 325 325 324 325 326 325 325 326 324 322 322 325 330 334 334 335 335 335 336 336 335 334 333 331 331 332 333 333 333 334 336 336 336 336 337 338 338 338 337 337
336 337 337 336 339 342 342 341 341 342 342 341 341 341 340 338 334 332 329 325 323 326 327 328 327 327 327 326 325 326 325 324 325 329 333 335 335 335 336 336 336 336 335 335 333 331 332 333 333 334 335 335 336 336 336 337 337 337 338 338 337 336

ECMWFFLT2_850_thetae_204.txt.gz
Theta_e
335 334 334 333 331 331 329 329 328 326 325 325 327 326 326 327 329 326 319 317 316 313 314 316 316 313 313 313 313 314 314 314 314 314 314 314 315 316 317 320 319 317 316 316 320 325 326 328 329 330 331 331 332 332 332 332 332 334 335 336 331 327
337 335 334 333 331 332 332 331 329 329 327 327 329 328 326 328 329 324 318 317 314 313 316 316 314 313 313 313 314 314 314 314 314 314 314 315 316 317 318 319 318 315 315 318 325 329 329 329 329 329 330 332 332 331 332 332 331 332 334 336 331 325
340 338 333 333 332 331 333 333 332 331 329 328 330 328 327 329 329 323 318 317 314 314 316 315 314 313 314 314 314 314 314 314 314 314 315 316 317 318 319 318 316 314 317 325 330 332 331 331 331 328 328 331 332 331 332 332 330 330 332 334 331 325
341 341 336 333 331 331 333 332 333 331 327 328 330 328 328 329 329 322 318 316 314 315 316 315 313 313 314 314 314 314 314 314 314 315 315 317 318 318 318 316 315 315 319 329 333 332 332 332 330 328 328 330 331 331 332 332 330 330 331 332 331 326
341 342 339 336 331 332 333 331 332 330 326 329 329 328 328 330 329 321 318 316 313 316 317 316 312 313 314 313 314 314 314 315 315 316 316 318 319 318 318 315 314 315 321 329 333 333 332 331 329 328 328 329 331 331 331 331 330 330 330 332 332 327
341 342 341 339 333 332 334 331 331 328 327 330 329 330 330 329 328 322 318 316 315 319 319 316 313 313 314 314 314 314 314 315 316 317 317 319 319 319 317 314 314 317 322 330 333 333 330 328 327 327 327 329 330 331 330 330 330 330 331 331 332 329
340 341 341 339 336 333 333 332 330 327 329 331 330 332 333 330 327 322 319 315 316 323 323 315 313 313 313 314 313 314 315 315 317 318 319 319 318 318 315 315 322 326 327 331 333 332 329 327 325 325 326 328 329 330 330 330 330 329 330 331 332 331
341 341 340 340 339 336 334 332 328 326 329 331 330 331 333 330 326 322 318 315 318 328 330 317 311 314 313 314 314 314 315 316 318 319 320 319 319 321 320 322 330 333 332 333 332 330 327 326 325 324 325 328 328 330 331 331 331 330 331 332 332 333
342 340 340 342 341 337 334 332 327 326 329 331 330 328 331 330 326 323 318 321 327 332 335 325 312 313 314 313 314 314 315 317 317 320 321 318 322 331 331 330 332 333 334 332 330 328 326 325 324 324 325 328 329 329 331 331 331 331 331 332 332 335
343 340 340 342 342 338 334 334 328 326 331 331 329 328 331 331 327 325 319 326 335 335 338 333 316 312 315 314 315 314 315 319 319 325 329 323 327 337 335 332 332 332 331 327 326 325 325 325 323 324 324 326 329 329 331 332 331 331 331 332 332 335
344 341 341 341 343 340 335 338 333 328 331 331 331 332 333 332 329 326 322 326 335 337 339 338 322 312 317 317 318 317 317 324 326 329 336 331 329 336 335 333 331 329 327 326 326 325 325 325 323 323 324 326 329 329 331 331 330 331 332 333 333 335
344 342 341 341 343 340 336 339 337 332 329 329 336 337 335 334 331 328 325 323 332 337 339 340 330 315 318 321 322 322 319 327 332 330 336 336 331 334 334 331 329 327 326 326 328 329 327 325 323 323 324 325 327 330 331 330 330 331 333 334 333 334
344 343 342 342 343 340 338 340 339 335 330 329 338 339 337 337 335 331 326 324 332 337 339 342 335 319 320 323 324 327 323 328 335 333 335 337 333 333 334 330 328 329 327 325 328 328 324 322 323 324 324 325 326 329 330 330 329 330 332 333 333 334
343 342 342 342 344 340 339 341 339 338 335 334 338 340 338 338 336 334 328 326 334 338 338 342 336 321 322 325 327 330 327 331 336 336 335 335 335 333 332 330 330 330 325 322 322 322 320 322 325 325 325 327 328 330 332 331 329 329 331 331 333 333
343 341 338 340 344 341 340 342 339 338 340 338 339 339 339 338 336 336 332 329 336 338 337 342 336 322 324 329 329 329 329 331 334 336 335 333 332 329 326 327 329 329 325 324 323 321 322 324 326 326 326 329 331 332 332 329 328 330 332 333 333 333
343 341 339 341 344 342 340 342 340 339 342 340 339 340 340 338 336 337 335 332 336 338 337 342 338 326 327 331 330 329 328 329 331 333 333 328 325 322 320 321 324 324 325 329 330 326 324 324 326 328 326 327 330 331 329 329 330 331 333 334 334 334
344 341 341 343 344 343 341 341 340 340 342 341 339 341 341 338 337 338 338 335 336 338 337 341 339 329 330 332 330 329 327 328 331 331 329 322 318 317 316 317 319 320 322 327 330 328 326 324 327 331 330 330 330 330 330 331 333 334 334 335 335 334
344 342 342 343 342 342 342 341 340 340 341 341 339 341 340 337 337 339 338 337 337 337 337 340 338 330 329 331 330 328 325 328 330 328 325 320 316 315 315 317 319 318 318 321 323 324 327 330 332 333 333 334 334 334 334 332 333 336 337 336 336 336
343 342 341 341 341 341 341 340 340 340 340 340 339 341 341 337 336 338 337 338 337 335 336 339 336 329 325 328 332 331 326 326 326 323 322 319 315 314 316 321 322 318 316 316 316 318 324 330 333 334 335 336 335 334 334 332 334 337 338 337 336 336
342 341 340 340 341 341 341 339 340 341 340 339 339 340 340 336 335 337 336 336 335 332 336 339 337 330 323 326 334 332 326 324 321 319 318 316 315 314 315 320 320 317 315 315 315 314 319 327 332 333 334 333 332 332 334 335 336 338 339 338 336 334
338 338 339 340 340 341 342 340 338 340 340 339 339 340 340 337 335 337 336 335 333 331 336 340 337 333 325 324 330 329 325 322 318 316 315 314 314 314 314 316 316 315 315 314 315 313 318 330 334 331 332 334 335 336 337 337 338 339 339 339 338 334
335 336 338 339 339 338 340 340 338 338 339 338 339 340 340 339 336 338 338 334 332 330 336 340 337 333 326 321 323 324 322 318 315 315 314 313 313 314 315 315 315 315 315 314 315 314 317 328 332 331 333 337 338 338 337 338 339 340 339 339 339 336
328 334 339 338 339 338 337 340 338 338 339 337 338 340 340 340 338 339 338 336 335 330 334 340 337 330 325 321 319 319 319 315 315 314 313 313 313 315 317 316 315 314 315 316 317 320 323 326 330 335 337 338 338 338 339 340 340 339 338 338 338 336
319 329 339 339 338 338 338 340 339 339 341 339 339 339 339 340 339 339 338 338 338 333 334 340 337 328 322 320 317 316 316 315 315 314 314 314 313 315 317 315 315 314 314 317 321 326 329 329 329 333 337 338 339 338 339 340 339 338 337 336 337 337
315 320 334 340 339 339 340 340 339 340 341 340 340 339 339 340 339 338 337 338 338 336 336 338 336 330 322 319 317 316 315 314 315 315 314 315 314 314 315 314 315 315 314 318 328 335 335 335 334 332 334 337 339 339 339 339 338 337 338 337 337 338
316 313 325 337 340 339 341 341 340 340 339 339 340 340 339 339 338 336 334 337 339 338 336 337 336 331 323 319 317 315 315 315 315 315 314 314 315 314 315 315 315 315 314 317 330 340 340 339 339 337 335 334 336 337 338 337 337 336 339 339 338 339
317 311 318 332 339 340 341 341 341 340 337 336 339 340 340 339 337 334 331 335 340 338 336 339 337 330 322 319 317 315 317 319 318 316 315 314 315 315 315 315 315 317 320 320 326 335 340 342 341 339 338 336 335 336 336 336 336 336 338 339 339 340
319 314 315 328 338 339 340 341 340 339 336 334 335 339 340 339 338 337 334 335 339 338 337 339 337 329 321 319 317 314 319 324 321 316 315 315 314 316 315 318 326 331 332 333 334 333 335 340 342 341 339 338 338 339 338 337 335 334 336 339 340 340
323 319 317 326 336 338 339 340 338 337 336 335 334 336 338 340 340 339 338 338 339 338 337 338 335 327 319 319 317 314 322 331 328 318 314 314 314 316 315 322 335 341 340 340 341 338 332 332 338 341 340 339 339 339 339 338 336 336 337 339 339 339
328 324 321 324 332 337 338 339 338 336 335 334 335 334 335 338 340 339 339 339 339 339 339 337 331 323 319 318 317 316 323 332 332 323 316 314 316 317 316 322 335 340 341 341 341 337 332 328 333 339 341 340 340 340 340 339 338 338 339 340 339 339
331 329 325 322 325 334 338 339 339 337 335 333 334 334 334 336 339 339 339 340 339 338 339 337 329 321 319 317 316 317 321 327 328 323 318 316 317 318 317 323 331 335 335 336 333 331 330 329 332 337 339 340 339 340 340 339 339 339 340 341 341 341
333 332 329 323 321 331 339 339 339 338 335 334 333 333 334 336 339 340 340 340 339 338 338 338 333 322 318 318 317 318 320 322 321 319 318 317 318 318 318 321 326 328 327 326 325 327 330 331 333 336 337 338 338 339 340 339 338 339 339 340 341 341
333 333 330 325 322 331 338 339 338 337 336 335 334 333 334 338 339 340 340 339 339 338 337 337 334 324 318 319 317 317 319 319 317 317 319 318 318 319 318 319 322 325 326 323 323 326 330 332 335 337 337 337 338 338 338 338 338 339 339 340 340 341
332 334 332 328 326 332 338 340 339 338 337 336 335 334 334 337 339 339 340 339 338 337 335 332 328 321 319 319 317 317 317 318 318 318 319 319 319 318 318 320 323 325 325 323 326 330 332 334 336 337 337 337 338 338 337 337 338 339 339 340 340 341
331 335 334 331 330 330 335 339 339 337 337 336 335 335 336 338 339 339 340 339 336 334 331 327 322 319 319 318 318 318 317 318 318 318 318 319 320 319 318 320 324 328 326 326 332 336 336 336 336 335 335 335 337 338 338 339 340 340 340 339 340 341
331 334 334 333 330 327 330 337 339 337 337 336 334 336 338 339 339 339 340 339 336 331 327 325 321 319 319 319 319 318 318 318 318 318 318 319 320 319 319 320 324 330 331 331 336 338 338 336 334 333 332 331 333 335 338 340 339 339 339 339 339 340
331 333 334 333 330 326 328 334 338 338 338 337 335 335 337 339 339 339 339 339 337 332 327 324 321 319 318 319 319 318 319 319 318 319 320 320 319 319 319 320 323 330 333 333 336 339 339 337 335 332 330 329 330 332 336 338 338 339 339 339 340 340

ECMWFFLT2_850_thetae_210.txt.gz
Theta_e
330 331 332 335 336 338 339 340 340 339 339 337 332 331 330 328 328 328 327 326 322 318 317 317 318 320 316 313 313 314 314 313 313 314 315 317 318 318 319 321 321 323 326 329 331 330 331 331 331 331 331 331 331 331 332 334 334 335 334 330 328 325
331 332 331 333 336 337 338 338 340 340 339 339 335 333 330 327 328 327 327 326 321 317 316 316 317 319 317 314 313 314 313 313 313 314 315 317 317 317 318 319 320 323 327 329 330 330 330 330 331 331 331 331 331 331 332 333 333 334 334 331 327 326
331 332 332 332 335 337 338 337 337 339 340 340 337 335 331 326 326 325 326 325 320 317 315 315 316 318 317 314 313 314 313 313 313 314 315 317 317 317 317 319 323 326 328 329 329 328 329 329 329 330 331 331 331 331 331 332 332 333 335 332 328 328
329 331 332 332 333 336 337 337 336 337 340 340 339 337 331 326 325 324 326 325 320 317 314 314 316 318 318 315 313 313 313 313 313 314 316 317 317 316 317 321 327 329 330 330 329 328 329 328 328 329 330 330 330 331 331 331 331 333 335 331 329 329
329 330 332 332 332 334 336 336 334 336 338 339 338 336 332 327 326 325 325 325 320 316 314 313 315 317 318 314 313 313 313 313 313 314 316 317 317 316 318 325 330 331 331 330 329 329 328 327 328 328 328 328 329 330 330 331 331 333 333 331 331 331
329 330 331 331 332 333 334 335 334 333 334 335 335 334 331 329 328 327 326 325 320 316 313 313 315 317 316 313 313 313 313 313 313 314 316 317 316 315 320 328 332 331 330 329 328 327 326 325 326 326 326 326 327 329 329 330 331 332 332 331 331 332
330 330 332 331 332 331 332 334 334 332 330 328 327 328 327 327 329 328 328 326 319 316 313 312 315 317 315 313 313 313 313 313 313 314 315 316 316 315 323 330 331 330 330 328 327 326 325 325 325 325 325 324 326 328 329 330 331 331 331 331 331 332
332 330 332 332 332 331 331 333 334 335 333 328 325 324 322 323 327 328 328 326 320 316 313 312 315 316 314 313 313 314 313 313 314 315 315 317 316 315 323 330 329 329 329 327 326 325 325 325 324 324 324 323 324 326 330 331 331 331 331 330 331 332
334 331 330 331 331 331 331 332 335 337 335 331 326 324 322 321 323 326 328 326 320 316 313 312 316 316 314 313 313 314 313 314 314 315 316 316 316 315 322 327 327 329 327 326 326 325 325 325 324 324 323 323 323 325 329 331 331 331 331 331 332 332
335 333 331 330 331 331 330 331 336 337 335 332 328 324 322 320 321 323 326 325 321 317 313 313 316 315 314 314 313 313 314 314 314 315 316 317 315 314 319 325 326 327 327 326 325 324 324 324 324 324 322 323 325 325 328 331 331 331 331 331 331 332
334 334 332 332 331 331 330 331 333 334 333 332 328 326 323 320 321 322 324 324 320 317 313 313 315 315 313 313 313 313 314 314 315 316 317 316 315 314 317 323 325 326 327 326 324 323 324 324 324 323 323 325 328 328 329 331 330 329 329 329 331 332
337 335 334 333 332 332 331 331 331 330 331 331 327 325 324 321 321 321 322 323 320 317 314 313 315 315 313 314 313 313 314 314 315 316 317 316 315 314 316 320 324 325 325 324 323 324 324 323 323 323 323 325 328 330 330 331 330 329 329 329 331 332
339 338 336 334 332 332 331 331 331 328 328 329 327 326 324 321 320 321 322 322 320 317 314 313 315 314 313 313 313 313 313 314 315 317 318 316 314 314 315 318 323 324 323 323 324 325 324 323 323 322 323 327 330 331 331 331 330 330 328 328 331 333
341 341 340 338 334 333 334 334 333 330 329 329 327 328 326 322 321 321 322 322 321 318 315 313 314 314 313 313 313 313 313 314 315 317 318 316 315 315 315 319 322 322 322 323 324 325 323 323 323 323 324 328 330 329 331 331 331 330 329 329 331 333
342 342 342 340 338 337 338 337 335 332 331 329 328 328 329 326 322 320 322 323 321 319 316 313 314 314 313 313 313 313 313 314 315 317 318 316 314 316 317 320 321 320 322 324 324 325 322 320 321 323 325 327 327 328 329 329 329 329 329 330 333 335
343 343 343 342 341 339 339 338 337 336 333 331 329 329 331 330 326 323 323 324 322 320 317 314 314 314 313 313 313 313 313 313 315 317 318 317 315 316 319 320 320 318 320 323 324 323 320 319 321 323 325 326 328 328 328 328 327 328 329 332 334 336
343 343 343 342 342 341 340 339 338 337 334 332 331 330 330 329 328 326 325 326 324 322 318 314 313 314 314 313 313 313 313 313 314 317 319 319 318 317 320 321 320 318 317 320 320 318 318 321 324 324 325 326 327 327 328 329 329 328 331 333 335 336
343 343 344 343 342 341 341 341 340 338 336 331 330 331 329 326 324 325 327 328 327 323 319 315 314 315 315 314 313 313 313 314 314 316 320 323 321 320 323 322 320 316 316 317 316 318 321 325 327 327 326 325 325 326 329 332 331 331 332 334 335 335
343 343 343 343 342 341 341 341 341 340 339 335 332 330 330 327 324 326 329 330 329 323 318 316 315 315 318 318 315 314 316 317 317 318 322 326 325 324 325 323 319 317 316 316 316 319 324 328 330 330 329 327 326 327 331 333 332 332 334 335 335 335
343 342 343 343 342 341 340 340 340 340 339 338 336 332 330 329 326 328 331 332 330 324 319 320 320 318 323 326 324 321 320 321 320 321 325 327 325 325 324 322 320 317 316 316 316 317 319 324 327 327 329 331 332 332 333 334 332 333 336 337 336 336
343 343 343 343 342 341 338 336 338 340 339 338 338 335 331 328 327 328 331 332 331 326 321 325 328 325 328 334 334 328 324 326 324 322 325 326 324 323 323 321 320 318 316 315 316 315 315 318 321 320 321 326 332 334 335 332 331 335 337 338 338 338
341 342 342 343 343 340 338 334 333 338 340 339 338 336 333 330 329 329 330 332 332 329 325 327 331 332 332 336 337 331 328 330 328 324 325 328 327 325 322 321 319 318 316 315 315 315 315 315 316 317 315 319 325 328 329 328 329 336 338 338 339 339
338 339 340 341 342 341 339 337 334 335 339 339 338 338 336 334 333 332 332 332 333 331 328 326 329 333 335 337 338 333 329 331 331 327 325 328 328 326 323 321 318 317 315 315 315 315 315 315 315 316 315 318 322 323 325 327 330 336 337 339 340 339
336 336 337 338 339 340 339 339 338 337 338 338 337 336 336 335 334 333 334 334 333 332 330 326 326 331 336 338 338 334 330 331 332 330 327 325 324 323 322 320 318 316 315 315 316 315 315 315 315 315 316 320 325 325 327 331 333 335 337 340 340 338
334 334 334 333 334 338 340 339 339 338 338 339 338 336 335 336 334 334 336 335 333 333 331 328 326 329 335 338 337 334 330 331 333 332 330 327 323 321 320 319 317 316 315 315 316 316 315 315 315 315 316 321 327 329 329 332 335 336 337 339 339 338
332 331 330 328 328 335 340 340 339 338 338 339 339 337 335 336 335 335 337 336 333 333 332 330 328 328 333 336 336 335 331 330 332 333 332 329 325 322 320 318 316 315 315 315 315 315 315 315 315 315 315 318 323 328 330 334 336 336 337 337 337 337
329 328 326 322 323 331 338 340 340 338 337 337 338 337 335 334 334 333 336 336 334 333 332 332 331 329 330 333 336 336 333 332 333 334 334 332 327 323 319 317 315 314 314 315 315 315 314 315 316 316 316 319 324 328 331 335 337 337 336 335 335 335
327 326 324 320 319 325 333 339 340 339 337 337 337 337 335 333 333 335 337 337 335 334 333 332 332 330 329 331 334 336 335 335 335 336 335 334 328 323 320 317 315 314 314 314 314 314 314 315 315 316 319 326 332 333 333 334 337 337 335 335 335 334
327 326 324 320 317 317 326 336 340 339 338 337 336 336 335 333 334 336 337 337 335 334 335 334 332 332 332 332 333 333 333 335 335 335 335 335 331 325 323 320 316 315 314 314 314 314 315 315 316 318 323 330 335 336 335 334 335 336 336 336 336 333
327 326 324 321 318 316 320 332 339 339 338 338 337 336 335 335 335 335 335 335 334 332 333 334 332 331 332 333 333 332 331 333 334 333 331 333 333 327 323 320 316 315 314 314 314 314 315 316 316 319 324 331 336 336 335 333 333 336 337 337 335 332
327 325 323 320 318 317 317 325 336 339 338 337 338 337 336 336 337 337 336 333 331 331 332 333 333 330 329 332 334 334 332 332 333 332 327 328 330 325 320 318 315 314 315 314 315 315 316 316 317 323 329 333 336 336 333 331 333 335 336 337 334 333
324 321 320 318 315 316 318 320 328 337 339 338 338 338 335 333 335 336 335 332 329 330 333 333 333 331 326 327 332 334 332 330 331 331 328 326 327 324 318 317 315 314 315 315 315 316 316 317 319 327 335 336 336 336 333 333 335 336 336 336 335 335
320 318 316 316 315 314 319 320 322 331 339 339 338 338 335 332 333 333 332 331 330 330 333 334 333 332 326 324 328 331 331 330 331 332 331 328 327 325 317 315 315 314 315 314 315 317 317 320 323 328 334 335 335 335 333 334 337 337 336 336 336 336
316 317 316 315 316 314 318 322 320 323 335 339 338 337 336 334 335 335 333 332 331 331 333 333 332 331 328 325 325 328 329 330 332 333 333 329 329 327 319 316 317 314 315 314 315 318 322 327 330 331 333 334 334 333 332 334 337 337 337 336 335 334
316 317 317 315 316 316 316 321 321 321 330 338 339 337 336 335 335 336 336 335 333 332 333 333 332 330 329 328 326 326 326 329 332 333 331 328 330 329 321 318 318 315 315 314 315 320 326 332 334 335 335 335 335 334 333 334 337 337 337 337 336 334
317 316 316 316 315 316 316 320 322 322 329 336 338 339 337 335 334 334 336 335 333 334 335 336 334 330 329 328 327 325 324 326 330 331 328 326 329 330 324 321 320 316 315 315 316 319 326 335 338 338 337 337 337 335 333 335 337 338 338 337 337 336
317 317 316 316 315 315 316 319 323 324 327 331 335 338 339 337 335 334 335 335 333 333 334 336 336 332 330 329 327 326 324 323 325 328 326 324 327 330 327 324 321 317 314 315 319 321 326 337 341 339 339 338 335 331 331 335 337 338 338 338 338 337